Location: Terra Rouge Observatory
(46.0000°N, 62.7500°W)
Time: 10:50:51
(UTC-03:00)

Amateur Radio Satellites - All Passes

Search period start: 28 March 2017 10:20
Search period end: 29 March 2017 10:20
Location: Terra Rouge Observatory, 46.0000°N, 62.7500°W

Satellite Date Start Highest point End Downlink Frequencies (MHz)
Time Altitude Azimuth
ZACube-1 28 Mar 10:29:06 10:33:15 54° 288° (WNW) 10:37:19 437.345
CUTE 1.7 + AOD 2 28 Mar 10:30:41 10:32:03 11° 301° (WNW) 10:33:25 437.475
CUBEBUG 2 28 Mar 10:30:44 10:34:09 22° 296° (WNW) 10:37:30 437.445
YUBILEINY 28 Mar 10:33:09 10:39:26 21° 302° (WNW) 10:45:46 435.215
POLYITAN 1 28 Mar 10:37:36 10:39:30 13° 59° (ENE) 10:41:24 437.675
PCSat 28 Mar 10:38:02 10:43:26 69° 305° (NW) 10:48:53 145.827
FO-29 28 Mar 10:39:07 10:46:54 80° 73° (ENE) 10:54:07 435.910
HO-68 28 Mar 10:39:31 10:45:23 28° 304° (WNW) 10:51:14 435.675
QB50P2 28 Mar 10:41:43 10:44:08 15° 61° (ENE) 10:46:34 145.880/145.840
DUCHIFAT 1 28 Mar 10:51:05 10:53:23 14° 61° (ENE) 10:55:42 145.980
AO-73 28 Mar 10:56:43 11:00:27 31° 292° (WNW) 11:04:08 145.935
DELFI C3 28 Mar 10:59:39 11:03:39 82° 103° (ESE) 11:07:39 145.870
NO-84 28 Mar 11:15:19 11:17:19 16° 11° (N) 11:19:23 435.350 FM
ESTCUBE 1 28 Mar 11:21:04 11:21:35 10° 87° (E) 11:22:06 437.505/2401.250
TIGRISAT 28 Mar 11:25:35 11:29:29 26° 266° (W) 11:33:22 435.000
NANOSAT C BR1 28 Mar 11:36:07 11:40:08 42° 70° (ENE) 11:44:11 145.865
UNISAT 6 28 Mar 11:37:04 11:40:24 19° 269° (W) 11:43:44 437.425
EO-79 28 Mar 11:41:47 11:45:56 52° 72° (ENE) 11:50:07 145.935-145.965
AIST 2D 28 Mar 11:45:10 11:48:42 82° 257° (WSW) 11:52:16 435.315
Oscar 11 28 Mar 11:56:28 11:57:48 11° 301° (WNW) 11:59:08 .
LO-87 28 Mar 11:59:42 12:03:16 46° 100° (E) 12:06:46 145.935 - 145.965
POLYITAN 1 28 Mar 12:10:23 12:14:41 78° 258° (WSW) 12:19:00 437.675
QB50P2 28 Mar 12:15:11 12:19:26 64° 258° (WSW) 12:23:43 145.880/145.840
Oscar 19 28 Mar 12:17:50 12:21:05 17° 58° (ENE) 12:24:20 437.125/150
VELOX 1 28 Mar 12:23:27 12:25:57 15° 90° (E) 12:28:26 145.980
PCSat 28 Mar 12:24:19 12:27:51 17° 327° (NNW) 12:31:25 145.827
DUCHIFAT 1 28 Mar 12:24:19 12:28:32 66° 258° (WSW) 12:32:48 145.980
FO-29 28 Mar 12:26:35 12:32:28 23° 270° (W) 12:38:08 435.910
RS-15 28 Mar 12:30:44 12:41:57 49° 110° (ESE) 12:53:29 29.354- 29.394
BUGSAT 1 28 Mar 12:32:29 12:36:37 53° 72° (ENE) 12:40:47 437.445
DELFI C3 28 Mar 12:36:52 12:37:50 11° 300° (WNW) 12:38:47 145.870
50 SAT 28 Mar 12:47:02 12:48:45 13° 91° (E) 12:50:27 437.505
Gurwin Techsat 1B 28 Mar 12:47:24 12:51:05 19° 59° (ENE) 12:54:45 435.225
SPROUT 28 Mar 12:52:07 12:55:40 25° 94° (E) 12:59:10 437.525
NO-84 28 Mar 12:52:24 12:55:23 49° 31° (NNE) 12:58:34 435.350 FM
ESTCUBE 1 28 Mar 12:54:29 12:59:01 89° 278° (W) 13:03:32 437.505/2401.250
NANOSAT C BR1 28 Mar 13:12:54 13:16:02 20° 267° (W) 13:19:11 145.865
EO-79 28 Mar 13:19:20 13:22:01 16° 269° (W) 13:24:42 145.935-145.965
DX 1 28 Mar 13:29:09 13:32:58 28° 96° (E) 13:36:44 434.975-435.025
LO-87 28 Mar 13:34:18 13:36:20 14° 297° (WNW) 13:38:22 145.935 - 145.965
Oscar 19 28 Mar 13:54:42 13:59:48 75° 257° (WSW) 14:04:57 437.125/150
VELOX 1 28 Mar 13:58:23 14:02:49 63° 287° (WNW) 14:07:13 145.980
AO-7 28 Mar 14:02:26 14:09:13 29° 51° (NE) 14:15:59 .
UKube-1 28 Mar 14:04:53 14:09:05 46° 100° (E) 14:13:15 .
ITAMSAT 1 28 Mar 14:08:48 14:12:21 19° 58° (ENE) 14:15:53 435.822/435.867
BUGSAT 1 28 Mar 14:09:41 14:12:18 16° 269° (W) 14:14:54 437.445
50 SAT 28 Mar 14:18:40 14:22:02 43° 288° (WNW) 14:25:23 437.505
Gurwin Techsat 1B 28 Mar 14:25:10 14:30:28 70° 257° (WSW) 14:35:49 435.225
SPROUT 28 Mar 14:27:45 14:31:38 34° 292° (WNW) 14:35:28 437.525
NO-84 28 Mar 14:30:15 14:32:46 21° 226° (SW) 14:35:25 435.350 FM
ESTCUBE 1 28 Mar 14:33:29 14:35:07 12° 302° (WNW) 14:36:45 437.505/2401.250
RS-15 28 Mar 14:42:11 14:54:13 63° 316° (NW) 15:06:34 29.354- 29.394
BEESAT 28 Mar 14:57:57 15:00:40 15° 90° (E) 15:03:20 436.000
SO-50 28 Mar 15:01:53 15:06:27 59° 122° (ESE) 15:10:59 436.795
DX 1 28 Mar 15:05:14 15:09:08 31° 293° (WNW) 15:13:01 434.975-435.025
ITUPSAT 1 28 Mar 15:14:53 15:18:31 21° 93° (E) 15:22:07 437.325
UKube-1 28 Mar 15:41:38 15:44:48 20° 297° (WNW) 15:47:57 .
ITAMSAT 1 28 Mar 15:46:02 15:51:15 72° 257° (WSW) 15:56:30 435.822/435.867
AO-7 28 Mar 15:52:53 16:01:14 79° 252° (WSW) 16:09:36 .
PCSat 28 Mar 15:59:12 16:00:03 10° 20° (NNE) 16:00:55 145.827
O/OREOS (USA 219) 28 Mar 15:59:19 16:01:16 13° 97° (E) 16:03:13 437.305
MOZHAYETS 4 28 Mar 16:32:16 16:36:44 54° 100° (E) 16:41:12
BEESAT 28 Mar 16:34:10 16:38:55 68° 287° (WNW) 16:43:37 436.000
SO-50 28 Mar 16:43:26 16:47:15 25° 321° (NW) 16:51:02 436.795
YUBILEINY 28 Mar 16:45:28 16:48:54 13° 49° (NE) 16:52:18 435.215
ITUPSAT 1 28 Mar 16:52:01 16:56:35 48° 290° (WNW) 17:01:08 437.325
RS-15 28 Mar 16:58:58 17:09:48 34° 347° (NNW) 17:20:40 29.354- 29.394
XW-2C 28 Mar 17:08:39 17:09:49 11° 61° (ENE) 17:11:00 145.795 - 145.815
CUBESAT XI-V 28 Mar 17:30:14 17:34:36 38° 97° (E) 17:38:56 437.345
KKS-1 28 Mar 17:34:31 17:38:55 51° 100° (E) 17:43:15 437.445
O/OREOS (USA 219) 28 Mar 17:35:28 17:40:00 75° 296° (WNW) 17:44:36 437.305
HO-68 28 Mar 17:38:31 17:42:25 16° 47° (NE) 17:46:19 435.675
DOVE 4 28 Mar 17:39:15 17:43:40 38° 68° (ENE) 17:48:22 437.250
PCSat 28 Mar 17:40:26 17:45:17 32° 45° (NE) 17:50:07 145.827
AO-7 28 Mar 17:50:15 17:55:17 17° 272° (W) 18:00:22 .
CUTE-I 28 Mar 17:51:34 17:56:32 40° 67° (ENE) 18:01:31 437.470
XW-2F 28 Mar 17:56:24 17:59:50 34° 70° (ENE) 18:03:17 145.980 - 146.000
LilacSat-2 28 Mar 18:01:37 18:05:14 42° 72° (ENE) 18:08:52 437.200
STARS 28 Mar 18:04:33 18:08:51 47° 100° (E) 18:13:05 437.465
MOZHAYETS 4 28 Mar 18:10:21 18:13:30 19° 298° (WNW) 18:16:40
NUDT-PHONESAT 28 Mar 18:15:02 18:18:37 46° 73° (ENE) 18:22:13 437.300
XW-2D 28 Mar 18:23:22 18:27:10 77° 76° (ENE) 18:30:58 145.860 - 145.880
KAITUO 1B 28 Mar 18:25:04 18:28:46 62° 74° (ENE) 18:32:28 145.475/437.950
XW-2B 28 Mar 18:29:22 18:33:11 87° 72° (ENE) 18:36:59 145.730 - 145.750
YUBILEINY 28 Mar 18:39:38 18:48:09 55° 74° (ENE) 18:56:38 435.215
XW-2C 28 Mar 18:39:42 18:43:29 70° 258° (WSW) 18:47:17 145.795 - 145.815
CUBESAT XI-V 28 Mar 19:07:58 19:11:49 26° 295° (WNW) 19:15:40 437.345
KKS-1 28 Mar 19:11:54 19:15:07 20° 298° (WNW) 19:18:18 437.445
RS-15 28 Mar 19:15:35 19:26:50 37° 21° (NNE) 19:37:48 29.354- 29.394
M-CUBED/EXP-1 PRIME 28 Mar 19:15:42 19:19:51 31° 101° (E) 19:24:00 437.505
AAUSAT CUBESAT 2 28 Mar 19:16:07 19:18:06 13° 61° (ENE) 19:20:04 437.432
UWE-3 28 Mar 19:17:10 19:19:39 14° 60° (ENE) 19:22:07 435.000/436.395/437.385
DOVE 4 28 Mar 19:17:22 19:21:27 28° 267° (W) 19:25:47 437.250
STRAND 1 28 Mar 19:17:42 19:20:00 13° 88° (E) 19:22:17 437.568
O/OREOS (USA 219) 28 Mar 19:18:23 19:20:16 12° 316° (NW) 19:22:10 437.305
HO-68 28 Mar 19:21:48 19:28:50 65° 68° (ENE) 19:35:55 435.675
PCSat 28 Mar 19:23:39 19:28:55 50° 244° (WSW) 19:34:07 145.827
XW-2A 28 Mar 19:24:40 19:28:02 54° 74° (ENE) 19:31:25 145.665 - 145.685
XW-2F 28 Mar 19:31:20 19:34:05 19° 267° (W) 19:36:50 145.980 - 146.000
CUTE-I 28 Mar 19:31:54 19:36:38 31° 264° (W) 19:41:25 437.470
SEEDS 28 Mar 19:36:18 19:40:10 40° 70° (ENE) 19:44:04 437.485
LilacSat-2 28 Mar 19:37:22 19:39:44 16° 269° (W) 19:42:06 437.200
STARS 28 Mar 19:41:37 19:44:53 20° 297° (WNW) 19:48:06 437.465
Oscar 11 28 Mar 19:42:22 19:43:36 11° 58° (ENE) 19:44:50 .
CUTE 1.7 + AOD 2 28 Mar 19:47:13 19:51:25 80° 76° (ENE) 19:55:38 437.475
NUDT-PHONESAT 28 Mar 19:50:49 19:52:48 14° 269° (W) 19:54:47 437.300
ZACube-1 28 Mar 19:52:00 19:55:05 18° 63° (ENE) 19:58:08 437.345
CUBEBUG 2 28 Mar 19:53:15 19:57:47 46° 71° (ENE) 20:02:17 437.445
KAITUO 1B 28 Mar 20:02:26 20:03:11 10° 271° (W) 20:03:56 145.475/437.950
AO-73 28 Mar 20:18:05 20:21:57 29° 67° (ENE) 20:25:45 145.935
Tancredo 1 28 Mar 20:25:03 20:27:48 28° 141° (SE) 20:30:35 437.200
ISS 28 Mar 20:35:30 20:38:26 31° 141° (SE) 20:41:23 437.550
YUBILEINY 28 Mar 20:36:56 20:44:37 37° 276° (W) 20:52:19 435.215
AO-85 28 Mar 20:43:46 20:47:50 37° 119° (ESE) 20:51:40 145.980
AAUSAT CUBESAT 2 28 Mar 20:48:57 20:53:02 67° 259° (WSW) 20:57:08 437.432
M-CUBED/EXP-1 PRIME 28 Mar 20:50:03 20:54:15 35° 298° (WNW) 20:58:28 437.505
UWE-3 28 Mar 20:50:52 20:55:32 77° 258° (WSW) 21:00:08 435.000/436.395/437.385
STRAND 1 28 Mar 20:54:42 20:59:51 85° 286° (WNW) 21:04:57 437.568
XW-2A 28 Mar 21:00:37 21:01:08 10° 271° (W) 21:01:38 145.665 - 145.685
HO-68 28 Mar 21:11:11 21:17:04 27° 267° (W) 21:22:59 435.675
SEEDS 28 Mar 21:12:58 21:16:02 20° 268° (W) 21:19:06 437.485
Oscar 11 28 Mar 21:14:43 21:19:03 90° 66° (ENE) 21:23:22 .
ZACube-1 28 Mar 21:26:32 21:30:59 54° 260° (W) 21:35:23 437.345
CUTE 1.7 + AOD 2 28 Mar 21:27:20 21:27:49 10° 273° (W) 21:28:17 437.475
RS-15 28 Mar 21:29:12 21:41:38 78° 51° (NE) 21:53:31 29.354- 29.394
CUBEBUG 2 28 Mar 21:30:56 21:34:35 22° 268° (W) 21:38:14 437.445
BEESAT 3 28 Mar 21:41:17 21:43:42 16° 111° (ESE) 21:46:09 437.485
DELFI C3 28 Mar 21:47:08 21:51:00 63° 74° (ENE) 21:54:54 145.870
SO-50 28 Mar 21:51:05 21:54:27 20° 35° (NE) 21:57:48 436.795
PRISM 28 Mar 21:52:38 21:55:17 16° 92° (E) 21:57:55 437.425
AO-73 28 Mar 21:54:03 21:58:06 32° 264° (W) 22:02:05 145.935
Tancredo 1 28 Mar 22:00:41 22:03:48 52° 339° (NNW) 22:06:55 437.200
BEESAT 2 28 Mar 22:03:51 22:04:51 11° 109° (ESE) 22:05:51 435.950
ISS 28 Mar 22:11:37 22:14:49 50° 340° (NNW) 22:18:02 437.550
ESTCUBE 1 28 Mar 22:21:58 22:24:20 14° 59° (ENE) 22:26:42 437.505/2401.250
AO-85 28 Mar 22:24:31 22:28:16 29° 316° (NW) 22:31:52 145.980
STRAND 1 28 Mar 22:35:45 22:38:15 14° 304° (NW) 22:40:45 437.568
LO-87 28 Mar 22:38:18 22:41:24 28° 69° (ENE) 22:44:32 145.935 - 145.965
TIGRISAT 28 Mar 23:13:44 23:18:06 57° 100° (E) 23:22:20 435.000
BEESAT 3 28 Mar 23:17:00 23:20:52 56° 309° (NW) 23:24:50 437.485
VELOX 1 28 Mar 23:22:55 23:25:59 19° 62° (ENE) 23:29:04 145.980
UNISAT 6 28 Mar 23:24:39 23:29:06 80° 103° (ESE) 23:33:24 437.425
DELFI C3 28 Mar 23:24:52 23:26:13 11° 271° (W) 23:27:34 145.870
PRISM 28 Mar 23:26:48 23:30:50 49° 289° (WNW) 23:34:52 437.425
SO-50 28 Mar 23:30:56 23:35:27 78° 234° (SW) 23:39:56 436.795
FO-29 28 Mar 23:32:22 23:38:14 53° 99° (E) 23:43:29 435.910
Tancredo 1 28 Mar 23:37:33 23:40:22 28° 359° (N) 23:43:10 437.200
BEESAT 2 28 Mar 23:38:01 23:41:58 82° 306° (NW) 23:46:01 435.950
RS-15 28 Mar 23:42:37 23:53:03 35° 255° (WSW) 00:03:06 29.354- 29.394
SPROUT 28 Mar 23:47:43 23:51:19 26° 66° (ENE) 23:54:56 437.525
ISS 28 Mar 23:48:49 23:51:45 29° 360° (N) 23:54:41 437.550
POLYITAN 1 28 Mar 23:54:09 23:56:28 14° 90° (E) 23:58:46 437.675
ESTCUBE 1 28 Mar 23:56:06 00:00:34 74° 258° (WSW) 00:05:04 437.505/2401.250
QB50P2 28 Mar 23:58:30 00:01:20 17° 91° (E) 00:04:08 145.880/145.840
DUCHIFAT 1 29 Mar 00:06:54 00:09:33 16° 91° (E) 00:12:10 145.980
LO-87 29 Mar 00:12:02 00:14:51 21° 266° (W) 00:17:43 145.935 - 145.965
DX 1 29 Mar 00:26:49 00:30:43 33° 67° (ENE) 00:34:40 434.975-435.025
AIST 2D 29 Mar 00:41:01 00:44:31 87° 103° (ESE) 00:48:00 435.315
TIGRISAT 29 Mar 00:51:31 00:54:20 17° 299° (WNW) 00:57:06 435.000
NANOSAT C BR1 29 Mar 00:53:14 00:57:24 54° 100° (E) 01:01:31 145.865
50 SAT 29 Mar 00:54:00 00:57:27 81° 257° (WSW) 01:00:56 437.505
VELOX 1 29 Mar 00:57:45 01:02:03 52° 260° (W) 01:06:25 145.980
BEESAT 3 29 Mar 00:57:48 00:59:21 12° 330° (NNW) 01:00:53 437.485
EO-79 29 Mar 00:59:25 01:03:40 70° 101° (E) 01:07:52 145.935-145.965
UKube-1 29 Mar 01:01:22 01:05:34 54° 72° (ENE) 01:09:48 .
UNISAT 6 29 Mar 01:03:14 01:05:08 13° 302° (WNW) 01:07:03 437.425
Tancredo 1 29 Mar 01:13:52 01:16:58 44° 19° (NNE) 01:20:02 437.200
BEESAT 2 29 Mar 01:18:03 01:20:24 15° 327° (NNW) 01:22:46 435.950
FO-29 29 Mar 01:18:03 01:22:53 26° 301° (WNW) 01:27:21 435.910
SPROUT 29 Mar 01:23:14 01:27:07 32° 263° (W) 01:31:02 437.525
ISS 29 Mar 01:25:28 01:28:42 48° 20° (NNE) 01:31:55 437.550
POLYITAN 1 29 Mar 01:28:28 01:32:38 58° 287° (WNW) 01:36:45 437.675
QB50P2 29 Mar 01:33:17 01:37:23 47° 289° (WNW) 01:41:26 145.880/145.840
DUCHIFAT 1 29 Mar 01:41:26 01:45:31 50° 288° (WNW) 01:49:34 145.980
BUGSAT 1 29 Mar 01:46:55 01:51:05 64° 101° (ESE) 01:55:10 437.445
DX 1 29 Mar 02:03:18 02:06:57 26° 265° (W) 02:10:38 434.975-435.025
Oscar 19 29 Mar 02:03:54 02:08:30 31° 96° (E) 02:13:05 437.125/150
O/OREOS (USA 219) 29 Mar 02:03:55 02:08:15 39° 58° (ENE) 02:12:35 437.305
BEESAT 29 Mar 02:06:15 02:10:03 24° 63° (ENE) 02:13:52 436.000
ITUPSAT 1 29 Mar 02:23:40 02:27:57 33° 66° (ENE) 02:32:14 437.325
NANOSAT C BR1 29 Mar 02:30:02 02:32:42 17° 298° (WNW) 02:35:22 145.865
EO-79 29 Mar 02:36:46 02:38:53 14° 300° (WNW) 02:41:01 145.935-145.965
Gurwin Techsat 1B 29 Mar 02:38:58 02:43:55 38° 97° (E) 02:48:50 435.225
UKube-1 29 Mar 02:39:15 02:41:55 16° 269° (W) 02:44:37 .
Tancredo 1 29 Mar 02:50:04 02:53:03 37° 217° (SW) 02:56:02 437.200
ISS 29 Mar 03:02:04 03:05:07 34° 218° (SW) 03:08:08 437.550
BUGSAT 1 29 Mar 03:23:42 03:25:55 14° 300° (WNW) 03:28:08 437.445
AO-85 29 Mar 03:33:23 03:35:02 12° 31° (NNE) 03:36:41 145.980
MOZHAYETS 4 29 Mar 03:36:09 03:40:43 69° 74° (ENE) 03:45:17
BEESAT 29 Mar 03:43:00 03:47:35 44° 261° (W) 03:52:10 436.000
Oscar 19 29 Mar 03:43:08 03:47:52 37° 293° (WNW) 03:52:35 437.125/150
O/OREOS (USA 219) 29 Mar 03:43:41 03:47:29 26° 257° (WSW) 03:51:16 437.305
AO-7 29 Mar 03:52:11 03:59:16 30° 95° (E) 04:06:18 .
ITAMSAT 1 29 Mar 03:56:36 04:01:18 33° 96° (E) 04:05:56 435.822/435.867
ITUPSAT 1 29 Mar 04:01:32 04:05:46 31° 264° (W) 04:10:02 437.325
Gurwin Techsat 1B 29 Mar 04:19:05 04:23:47 33° 295° (WNW) 04:28:27 435.225
KKS-1 29 Mar 04:34:33 04:38:58 64° 73° (ENE) 04:43:26 437.445
CUBESAT XI-V 29 Mar 04:35:42 04:40:07 48° 71° (ENE) 04:44:33 437.345
STARS 29 Mar 05:03:06 05:07:26 57° 72° (ENE) 05:11:49 437.465
AO-85 29 Mar 05:12:17 05:16:12 65° 51° (NE) 05:20:11 145.980
MOZHAYETS 4 29 Mar 05:15:59 05:18:21 14° 271° (W) 05:20:44
ITAMSAT 1 29 Mar 05:36:03 05:40:46 36° 294° (WNW) 05:45:27 435.822/435.867
DOVE 4 29 Mar 05:39:04 05:39:14 10° 83° (E) 05:39:25 437.250
AO-7 29 Mar 05:44:24 05:52:37 68° 295° (WNW) 06:00:48 .
NO-84 29 Mar 05:51:33 05:52:39 12° 129° (SE) 05:53:46 435.350 FM
BEESAT 3 29 Mar 05:54:20 05:57:45 25° 42° (NE) 06:01:07 437.485
YUBILEINY 29 Mar 05:55:27 05:57:06 11° 69° (ENE) 05:58:45 435.215
M-CUBED/EXP-1 PRIME 29 Mar 06:03:47 06:07:29 50° 66° (ENE) 06:11:32 437.505
CUTE-I 29 Mar 06:07:58 06:10:01 12° 87° (E) 06:12:05 437.470
XW-2C 29 Mar 06:12:53 06:13:00 10° 88° (E) 06:13:07 145.795 - 145.815
KKS-1 29 Mar 06:13:30 06:15:57 14° 270° (W) 06:18:26 437.445
CUBESAT XI-V 29 Mar 06:14:27 06:17:45 19° 269° (W) 06:21:05 437.345
BEESAT 2 29 Mar 06:16:20 06:19:24 20° 38° (NE) 06:22:28 435.950
STRAND 1 29 Mar 06:35:06 06:39:17 26° 63° (ENE) 06:43:29 437.568
STARS 29 Mar 06:41:26 06:44:09 16° 269° (W) 06:46:53 437.465
AO-85 29 Mar 06:54:09 06:56:06 13° 249° (WSW) 06:58:05 145.980
XW-2F 29 Mar 06:59:56 07:03:23 34° 97° (E) 07:06:48 145.980 - 146.000
LilacSat-2 29 Mar 07:06:21 07:09:59 45° 99° (E) 07:13:36 437.200
DOVE 4 29 Mar 07:12:29 07:17:49 73° 101° (ESE) 07:23:01 437.250
NUDT-PHONESAT 29 Mar 07:16:51 07:20:25 45° 99° (E) 07:23:56 437.300
NO-84 29 Mar 07:26:56 07:29:47 69° 326° (NW) 07:32:39 435.350 FM
XW-2D 29 Mar 07:27:32 07:31:18 81° 102° (ESE) 07:35:02 145.860 - 145.880
KAITUO 1B 29 Mar 07:27:43 07:31:24 63° 101° (ESE) 07:35:03 145.475/437.950
CUTE 1.7 + AOD 2 29 Mar 07:31:36 07:33:04 12° 88° (E) 07:34:32 437.475
BEESAT 3 29 Mar 07:31:40 07:35:29 42° 241° (WSW) 07:39:16 437.485
XW-2B 29 Mar 07:33:32 07:37:19 88° 283° (WNW) 07:41:04 145.730 - 145.750
AO-7 29 Mar 07:38:38 07:43:57 19° 316° (NW) 07:49:16 .
M-CUBED/EXP-1 PRIME 29 Mar 07:40:00 07:42:19 15° 265° (W) 07:44:45 437.505
YUBILEINY 29 Mar 07:43:22 07:51:50 57° 90° (E) 08:00:16 435.215
XW-2C 29 Mar 07:43:54 07:47:39 65° 285° (WNW) 07:51:20 145.795 - 145.815
CUTE-I 29 Mar 07:45:28 07:50:52 86° 104° (ESE) 07:56:12 437.470
BEESAT 2 29 Mar 07:53:31 07:57:33 62° 237° (WSW) 08:01:32 435.950
STRAND 1 29 Mar 08:13:15 08:18:13 47° 261° (W) 08:23:11 437.568
XW-2A 29 Mar 08:16:55 08:20:07 39° 98° (E) 08:23:18 145.665 - 145.685
PCSat 29 Mar 08:27:11 08:29:57 14° 103° (ESE) 08:32:43 145.827
AAUSAT CUBESAT 2 29 Mar 08:29:31 08:32:07 16° 91° (E) 08:34:41 437.432
HO-68 29 Mar 08:34:11 08:41:13 54° 101° (E) 08:48:12 435.675
XW-2F 29 Mar 08:34:38 08:37:19 19° 294° (WNW) 08:39:59 145.980 - 146.000
UWE-3 29 Mar 08:39:10 08:42:04 18° 90° (E) 08:44:55 435.000/436.395/437.385
LilacSat-2 29 Mar 08:41:39 08:43:56 16° 296° (WNW) 08:46:13 437.200
PRISM 29 Mar 08:44:30 08:47:10 17° 62° (ENE) 08:49:50 437.425
DOVE 4 29 Mar 08:51:18 08:54:53 19° 300° (WNW) 08:58:26 437.250
UNISAT 6 29 Mar 08:51:41 08:53:46 13° 59° (ENE) 08:55:51 437.425
NUDT-PHONESAT 29 Mar 08:51:52 08:53:59 15° 296° (WNW) 08:56:05 437.300
SEEDS 29 Mar 08:52:42 08:56:50 56° 100° (E) 09:00:57 437.485
Oscar 11 29 Mar 09:00:50 09:03:07 14° 89° (E) 09:05:23 .
KAITUO 1B 29 Mar 09:03:39 09:04:56 11° 298° (WNW) 09:06:12 145.475/437.950
CUTE 1.7 + AOD 2 29 Mar 09:05:11 09:09:24 72° 285° (WNW) 09:13:36 437.475
NO-84 29 Mar 09:05:43 09:07:45 17° 347° (NNW) 09:09:49 435.350 FM
ZACube-1 29 Mar 09:12:54 09:16:17 23° 93° (E) 09:19:36 437.345
CUBEBUG 2 29 Mar 09:18:05 09:22:29 72° 101° (E) 09:26:44 437.445
CUTE-I 29 Mar 09:27:02 09:30:12 16° 304° (WNW) 09:33:22 437.470
AO-73 29 Mar 09:39:08 09:43:06 39° 97° (E) 09:46:59 145.935
YUBILEINY 29 Mar 09:41:10 09:49:01 36° 292° (WNW) 09:56:55 435.215
FO-29 29 Mar 09:45:18 09:52:13 39° 64° (ENE) 09:58:39 435.910
XW-2A 29 Mar 09:50:44 09:52:35 14° 296° (WNW) 09:54:26 145.665 - 145.685
AAUSAT CUBESAT 2 29 Mar 10:03:50 10:07:51 49° 288° (WNW) 10:11:52 437.432
PCSat 29 Mar 10:07:07 10:12:33 90° 124° (SE) 10:18:01 145.827
